TimeCDT,TemperatureF,Dew PointF,Humidity,Sea Level PressureIn,VisibilityMPH,Wind Direction,Wind SpeedMPH,Gust SpeedMPH,PrecipitationIn,Events,Conditions,WindDirDegrees,DateUTC
12:15 AM,45.1,43.3,93,29.98,10.0,Calm,Calm,-,N/A,,Clear,0,2012-10-16 05:15:00
12:35 AM,45.5,43.7,93,29.98,10.0,Calm,Calm,-,N/A,,Clear,0,2012-10-16 05:35:00
12:55 AM,45.0,43.7,95,29.98,10.0,Calm,Calm,-,N/A,,Clear,0,2012-10-16 05:55:00
1:15 AM,44.4,43.2,95,29.98,10.0,Calm,Calm,-,N/A,,Clear,0,2012-10-16 06:15:00
1:35 AM,43.7,42.3,95,29.99,10.0,Calm,Calm,-,N/A,,Clear,0,2012-10-16 06:35:00
1:55 AM,44.1,43.2,97,29.99,5.0,Calm,Calm,-,N/A,,Clear,0,2012-10-16 06:55:00
2:15 AM,43.7,43.0,97,29.99,4.0,Calm,Calm,-,N/A,,Clear,0,2012-10-16 07:15:00
2:35 AM,43.3,42.4,97,29.99,10.0,Calm,Calm,-,N/A,,Clear,0,2012-10-16 07:35:00
2:55 AM,42.8,41.9,97,29.98,10.0,Calm,Calm,-,N/A,,Clear,0,2012-10-16 07:55:00
3:15 AM,43.0,42.1,97,29.97,7.0,ESE,3.5,-,N/A,,Clear,120,2012-10-16 08:15:00
3:35 AM,42.8,41.9,97,29.97,7.0,ESE,3.5,-,N/A,,Clear,120,2012-10-16 08:35:00
3:55 AM,43.3,42.4,97,29.96,7.0,East,4.6,-,N/A,,Clear,100,2012-10-16 08:55:00
4:15 AM,43.0,42.1,97,29.96,4.0,Calm,Calm,-,N/A,,Clear,0,2012-10-16 09:15:00
4:35 AM,43.7,42.8,97,29.96,7.0,Calm,Calm,-,N/A,,Clear,0,2012-10-16 09:35:00
4:55 AM,42.8,42.1,97,29.96,7.0,ESE,3.5,-,N/A,,Clear,110,2012-10-16 09:55:00
5:15 AM,43.0,42.3,97,29.95,7.0,Calm,Calm,-,N/A,,Clear,0,2012-10-16 10:15:00
5:35 AM,44.4,43.7,97,29.95,7.0,Calm,Calm,-,N/A,,Clear,0,2012-10-16 10:35:00
5:55 AM,43.9,43.0,97,29.95,7.0,SE,3.5,-,N/A,,Clear,130,2012-10-16 10:55:00
6:35 AM,45.0,43.7,95,29.95,7.0,SE,4.6,-,N/A,,Clear,130,2012-10-16 11:35:00
7:15 AM,45.5,44.1,95,29.94,7.0,ESE,5.8,-,N/A,,Clear,120,2012-10-16 12:15:00
7:55 AM,50.0,46.9,89,29.94,7.0,ESE,4.6,-,N/A,,Clear,120,2012-10-16 12:55:00
8:15 AM,52.9,48.0,84,29.95,10.0,SE,8.1,-,N/A,,Clear,140,2012-10-16 13:15:00
8:35 AM,55.0,48.6,79,29.95,10.0,SE,6.9,-,N/A,,Scattered Clouds,140,2012-10-16 13:35:00
8:55 AM,57.2,48.2,72,29.96,7.0,SSE,11.5,-,N/A,,Scattered Clouds,150,2012-10-16 13:55:00
9:15 AM,58.5,48.7,70,29.95,10.0,SSE,11.5,-,N/A,,Clear,150,2012-10-16 14:15:00
9:35 AM,59.7,48.4,66,29.95,10.0,SE,15.0,-,N/A,,Clear,140,2012-10-16 14:35:00
9:55 AM,61.7,48.6,62,29.94,10.0,SE,13.8,18.4,N/A,,Clear,140,2012-10-16 14:55:00
10:15 AM,63.7,48.4,57,29.94,7.0,SSE,15.0,-,N/A,,Clear,150,2012-10-16 15:15:00
10:35 AM,65.5,48.0,53,29.93,10.0,SSE,18.4,21.9,N/A,,Clear,150,2012-10-16 15:35:00
10:55 AM,67.5,48.6,51,29.92,10.0,SSE,15.0,19.6,N/A,,Clear,150,2012-10-16 15:55:00
11:15 AM,68.4,48.2,48,29.92,7.0,SSE,16.1,-,N/A,,Clear,150,2012-10-16 16:15:00
11:35 AM,69.4,48.9,48,29.91,10.0,SSE,11.5,-,N/A,,Clear,150,2012-10-16 16:35:00
11:55 AM,70.5,49.6,47,29.90,10.0,South,13.8,20.7,N/A,,Clear,170,2012-10-16 16:55:00
12:15 PM,71.4,50.2,47,29.88,7.0,SSE,16.1,20.7,N/A,,Clear,160,2012-10-16 17:15:00
12:35 PM,72.3,50.7,46,29.87,10.0,SSE,15.0,20.7,N/A,,Clear,160,2012-10-16 17:35:00
12:55 PM,73.6,51.4,46,29.85,10.0,South,16.1,20.7,N/A,,Clear,170,2012-10-16 17:55:00
1:15 PM,74.8,51.4,44,29.84,10.0,SSE,16.1,21.9,N/A,,Clear,160,2012-10-16 18:15:00
1:35 PM,75.6,50.9,42,29.82,10.0,SSE,15.0,20.7,N/A,,Clear,160,2012-10-16 18:35:00
1:55 PM,76.1,51.3,42,29.81,10.0,South,17.3,20.7,N/A,,Clear,170,2012-10-16 18:55:00
2:15 PM,76.6,51.4,41,29.80,10.0,South,13.8,20.7,N/A,,Clear,180,2012-10-16 19:15:00
2:35 PM,77.2,51.8,41,29.79,10.0,South,15.0,20.7,N/A,,Clear,170,2012-10-16 19:35:00
2:55 PM,77.7,52.0,41,29.78,10.0,South,16.1,19.6,N/A,,Clear,180,2012-10-16 19:55:00
3:15 PM,77.9,52.0,40,29.77,10.0,SSE,15.0,-,N/A,,Clear,160,2012-10-16 20:15:00
3:35 PM,78.1,52.3,41,29.77,10.0,South,15.0,-,N/A,,Clear,170,2012-10-16 20:35:00
3:55 PM,78.3,52.5,41,29.76,10.0,South,16.1,-,N/A,,Clear,170,2012-10-16 20:55:00
4:15 PM,78.1,53.1,42,29.75,10.0,South,13.8,-,N/A,,Clear,170,2012-10-16 21:15:00
4:35 PM,77.9,53.2,42,29.74,10.0,South,13.8,-,N/A,,Clear,170,2012-10-16 21:35:00
4:55 PM,77.4,53.6,44,29.74,10.0,SSE,13.8,-,N/A,,Clear,160,2012-10-16 21:55:00
5:15 PM,76.5,54.0,46,29.74,10.0,SSE,12.7,-,N/A,,Clear,160,2012-10-16 22:15:00
5:35 PM,75.0,54.7,49,29.73,10.0,South,10.4,-,N/A,,Clear,170,2012-10-16 22:35:00
5:55 PM,72.7,55.2,54,29.72,10.0,South,9.2,-,N/A,,Clear,170,2012-10-16 22:55:00
6:15 PM,69.4,55.4,61,29.72,10.0,South,6.9,-,N/A,,Clear,170,2012-10-16 23:15:00
6:35 PM,64.9,55.4,71,29.72,7.0,South,5.8,-,N/A,,Clear,170,2012-10-16 23:35:00
6:55 PM,63.3,55.2,75,29.73,10.0,South,5.8,-,N/A,,Clear,170,2012-10-16 23:55:00
7:15 PM,62.4,55.0,77,29.74,7.0,SSE,6.9,-,N/A,,Clear,160,2012-10-17 00:15:00
7:35 PM,62.4,55.2,77,29.74,10.0,South,10.4,-,N/A,,Clear,170,2012-10-17 00:35:00
7:55 PM,64.2,55.6,73,29.74,10.0,South,9.2,-,N/A,,Clear,170,2012-10-17 00:55:00
8:15 PM,63.5,55.6,75,29.74,10.0,South,9.2,-,N/A,,Clear,170,2012-10-17 01:15:00
8:35 PM,62.1,55.4,79,29.74,10.0,South,9.2,-,N/A,,Clear,180,2012-10-17 01:35:00
8:55 PM,61.7,55.0,79,29.75,10.0,South,9.2,-,N/A,,Clear,170,2012-10-17 01:55:00
9:15 PM,61.3,54.9,79,29.75,7.0,South,9.2,-,N/A,,Clear,170,2012-10-17 02:15:00
9:35 PM,62.8,54.5,74,29.75,10.0,South,9.2,-,N/A,,Clear,170,2012-10-17 02:35:00
9:55 PM,62.4,54.0,74,29.75,10.0,South,9.2,-,N/A,,Clear,180,2012-10-17 02:55:00
10:15 PM,62.4,53.2,72,29.75,10.0,South,8.1,-,N/A,,Clear,180,2012-10-17 03:15:00
10:35 PM,61.5,52.7,73,29.76,10.0,South,6.9,-,N/A,,Clear,180,2012-10-17 03:35:00
10:55 PM,61.7,52.3,71,29.76,10.0,South,9.2,-,N/A,,Clear,180,2012-10-17 03:55:00
11:15 PM,63.1,52.3,68,29.76,7.0,South,11.5,-,N/A,,Clear,190,2012-10-17 04:15:00
11:35 PM,63.5,52.2,67,29.76,10.0,South,10.4,-,N/A,,Clear,190,2012-10-17 04:35:00
11:55 PM,61.5,52.2,71,29.76,10.0,South,10.4,-,N/A,,Clear,190,2012-10-17 04:55:00